Regional Weather Roundup
Issued by NWS

Home | Current Version | Previous Version | Graphics & Text | Print | Product List | Glossary On
Versions: 1 2 3 4 5 6 7 8 9 10 11 12 13 14 15 16 17 18 19 20 21 22 23 24 25 26 27 28 29 30 31 32 33 34 35 36 37 38 39 40 41 42 43 44 45 46 47 48 49 50
000
ASUS43 KLOT 221306
RWRIL

ILLINOIS REGIONAL WEATHER ROUNDUP
NATIONAL WEATHER SERVICE CHICAGO/ROMEOVILLE IL
800 AM CDT FRI AUG 22 2014

NOTE: "FAIR" INDICATES FEW OR NO CLOUDS BELOW 12,000 FEET WITH NO
SIGNIFICANT WEATHER AND/OR OBSTRUCTIONS TO VISIBILITY.

* THESE STATIONS ARE NOT UNDER NWS QUALITY CONTROL. THEY ALSO MAY NOT
  REPORT WEATHER SUCH AS PRECIPITATION OR FOG.

ILZ001-002-007-009-015-016-024-221400-
NORTHWEST ILLINOIS

CITY           SKY/WX    TMP DP  RH WIND       PRES   REMARKS
MOLINE         CLOUDY    76  73  91 VRB3      29.90S
STERLING*      PTSUNNY   75  73  94 CALM      29.92F
SAVANNA*       PTSUNNY   76  73  92 E3        29.90F FOG
$$

ILZ003-004-008-010-011-017-018-221400-
NORTH CENTRAL ILLINOIS

CITY           SKY/WX    TMP DP  RH WIND       PRES   REMARKS
ROCKFORD       PTSUNNY   75  72  90 S6        29.93F
FREEPORT*      PTSUNNY   73  72  97 SE8       29.95F FOG
ROCHELLE*      PTSUNNY   73  72  95 S5        29.93F
DE KALB*       PTSUNNY   73  71  96 S7        29.94F
PERU*          CLOUDY    73  72  94 SW9       29.97R
$$

ILZ005-006-012>014-019>023-221400-
NORTHEAST ILLINOIS

CITY           SKY/WX    TMP DP  RH WIND       PRES   REMARKS
CHICAGO-OHARE  PTSUNNY   75  70  84 SW6       29.92S
CHICAGO-MIDWAY PTSUNNY   77  73  87 S7        29.93S
AURORA         PTSUNNY   75  71  87 S5        29.93S
LANSING*       PTSUNNY   74  72  93 S7        29.94S
JOLIET*        CLOUDY    74  71  90 CALM      29.93F
WAUKEGAN       PTSUNNY   72  71  97 CALM      29.92F FOG
DUPAGE AIRPORT PTSUNNY   75  72  90 S7        29.92F
KANKAKEE*      CLOUDY    73  72  96 SE7       29.95R
WHEELING       MOSUNNY   76  72  87 SW3       29.94S
MORRIS*        CLOUDY    75  75 100 SW3       29.93S
ROMEOVILLE*    PTSUNNY   74  73  98 W5        29.93R
NORTHERLY ISL    N/A     75  71  87 S2          N/A
$$

LMZ740>746-221400-
SOUTHERN LAKE MICHIGAN

STATION/POSITION SKY/WX   TEMP    WIND        PRES    VSBY  WAVE
                          AIR SEA DIR/SP/G                  HT/PER
                          (F)     (DEG/KT/KT) (MB)    (MI)  (FT/S)
SOUTHERN BUOY              69 69  170/  8/ 12 1013.9R         0
WAUKEGAN HARBOR            72        CALM       N/A
HARRISON CRIB              73     160/  6/  9   N/A
BURNHAM HARBOR             75     140/  5/  6   N/A
CALUMET HARBOR             73     160/  3/  6 1012.4S
MICHIGAN CITY              73     100/  4/  6   N/A
MICHIGAN CITY 6N           72 71  170/  4/  4   N/A           1
ST. JOSEPH                 72 71  120/  4/  6   N/A           1
$$

ILZ025>027-034>036-040-047-049-050-058-095>099-221400-
WEST-CENTRAL ILLINOIS

CITY           SKY/WX    TMP DP  RH WIND       PRES   REMARKS
QUINCY         CLOUDY    76  72  87 SW7       29.98R
GALESBURG*     CLOUDY    74  73  99 S8        29.94S
MACOMB*        TSTM      74  74 100 N5        30.01R
JACKSONVILLE*  PTSUNNY   78  74  88 CALM      30.00R
PITTSFIELD*    PTSUNNY   79  71  76 SW6       30.00R HX  82
$$

ILZ028>032-037-038-041>044-048-051>054-059>061-221400-
CENTRAL ILLINOIS

CITY           SKY/WX    TMP DP  RH WIND       PRES   REMARKS
PONTIAC        CLOUDY    73  73 100 SW8       29.98R
DECATUR        CLOUDY    77  73  87 NW5       30.00R
PEORIA         LGT RAIN  74  70  87 E6        29.97F
LACON*         TSTM      72  71  96 S8        29.96R
LINCOLN*       TSTM      74  73  94 NW5       29.99R
SPRINGFIELD    CLOUDY    78  73  84 CALM      30.00R HX  81
TAYLORVILLE    PTSUNNY   73  72  94 CALM      30.00R
$$

ILZ033-039-045-046-055>057-062-063-221400-
EAST-CENTRAL ILLINOIS

CITY           SKY/WX    TMP DP  RH WIND       PRES   REMARKS
CHAMPAIGN      CLOUDY    75  71  87 E8        30.01R
DANVILLE*      HVY RAIN  72  72  98 N5        29.98F
RANTOUL*       LGT RAIN  74  71  91 CALM      30.01S
MATTOON        CLOUDY    77  72  84 NW8       30.00R
PARIS*         CLOUDY    74  74  97 CALM      30.02R
$$

ILZ079-100>102-221400-
SOUTHWEST ILLINOIS

CITY           SKY/WX    TMP DP  RH WIND       PRES   REMARKS
ALTON          PTSUNNY   79  75  89 SW8       29.99R HX  82
BELLEVILLE     SUNNY     77  74  90 SE1       30.00R
CAHOKIA*       SUNNY     80  72  76 VRB3      29.99R HX  84
SPARTA*        SUNNY     76  72  86 S7        30.02R
$$

ILZ064>066-069>071-074>076-080>082-084>086-088>090-092>094-221400-
SOUTH-CENTRAL ILLINOIS

CITY           SKY/WX    TMP DP  RH WIND       PRES   REMARKS
CARBONDALE     SUNNY     78  72  81 SW9       30.02R HX  80
CAIRO*         SUNNY     79  74  85 S6        30.05S HX  83
MARION         PTSUNNY   79  73  83 SW8       30.04R HX  82
MT. VERNON     MOSUNNY   75  70  83 SW7       30.02R
CENTRALIA*     SUNNY     79  71  75 SW6       30.01R HX  82
SALEM*         SUNNY     78  74  87 SW7       30.01R HX  80
METROPOLIS*    SUNNY     79  71  77 SW7       30.05R HX  82
$$

ILZ067-068-072-073-078-083-087-091-221400-
SOUTHEAST ILLINOIS

CITY           SKY/WX    TMP DP  RH WIND       PRES   REMARKS
LAWRENCEVILLE  CLOUDY    77  73  87 SW7       30.00R
FLORA*         CLOUDY    76  74  93 SW5       30.01R
FAIRFIELD*     PTSUNNY   77  75  94 CALM      30.01R
HARRISBURG*    MOSUNNY   76  75  99 CALM      30.04R
ROBINSON*      CLOUDY    78  74  89 SW5       30.00S HX  80
CARMI*         PTSUNNY   79  75  89 SW5       30.02R HX  82
$$

ABBREVIATIONS USED IN REMARKS
   TC - TEMPERATURE IN CELSIUS
  WCI - WIND CHILL INDEX
   HX - HEAT INDEX
  VSB - VISIBILITY
$$



USA.gov is the U.S. government's official web portal to all federal, state and local government web resources and services.